Time_in_sec,Mx,My,Mz
1312472558.84329391,0.17681174,-0.21084130,-0.64419407
1312472558.89634085,0.17800336,-0.20827408,-0.64683181
1312472558.94336534,0.17811246,-0.20867719,-0.64507574
1312472558.99530363,0.17768736,-0.20836571,-0.64980543
1312472559.04335809,0.17704314,-0.20745933,-0.64619106
1312472559.09528518,0.17769080,-0.20656811,-0.64669770
1312472559.14333200,0.17700955,-0.20926085,-0.64470178
1312472559.19534945,0.17784953,-0.20924865,-0.64666837
1312472559.24329853,0.17735055,-0.20757140,-0.64791882
1312472559.29533672,0.17721400,-0.20678101,-0.65008199
1312472559.34330773,0.17694026,-0.20873809,-0.64578438
1312472559.39529204,0.17835256,-0.20848183,-0.64731675
1312472559.44442677,0.17931396,-0.20928182,-0.64510590
1312472559.49650478,0.17718042,-0.20562822,-0.65049559
1312472559.54328966,0.17690556,-0.20949569,-0.64645237
1312472559.59643412,0.17744832,-0.20667379,-0.64845723
1312472559.64328146,0.17729974,-0.21015860,-0.64454395
1312472559.69642687,0.17578755,-0.20718667,-0.64653426
1312472559.74431229,0.17720488,-0.20858723,-0.64818823
1312472559.79644585,0.17804916,-0.20694469,-0.64761448
1312472559.84330869,0.17736164,-0.20993112,-0.64631897
1312472559.89643693,0.17876717,-0.20878159,-0.64785880
1312472559.94329929,0.17531127,-0.21041906,-0.64629936
1312472559.99533033,0.17735542,-0.20824893,-0.64848179
1312472560.04330492,0.17667910,-0.20862529,-0.64838368
1312472560.09533644,0.17794417,-0.20705196,-0.64936614
1312472560.14332104,0.17788827,-0.20900132,-0.64599633
1312472560.19542241,0.17760707,-0.20639999,-0.65033084
1312472560.24448490,0.17798899,-0.20757003,-0.64868796
1312472560.29633784,0.17861542,-0.20593522,-0.64718640
1312472560.34445882,0.17705615,-0.20922033,-0.64846075
1312472560.39531994,0.17793794,-0.20638917,-0.65165514
1312472560.44584346,0.17582700,-0.21022648,-0.64852417
1312472560.49529076,0.17863983,-0.20695889,-0.64690864
1312472560.54443312,0.17729650,-0.20794317,-0.64885950
1312472560.59530568,0.17733733,-0.20693199,-0.64805871
1312472560.64446902,0.17701648,-0.21025646,-0.64697760
1312472560.69530249,0.17792279,-0.20641099,-0.64964086
1312472560.74477124,0.17840220,-0.20882401,-0.65107274
1312472560.79540682,0.17713147,-0.20857318,-0.64940161
1312472560.84575796,0.17580350,-0.20841402,-0.65095717
1312472560.89541960,0.17615083,-0.20830370,-0.64972889
1312472560.94435811,0.17790438,-0.21012604,-0.64813632
1312472560.99574614,0.17725354,-0.20778286,-0.65181851
1312472561.04332924,0.17627689,-0.20904265,-0.65226847
1312472561.09247637,0.17681390,-0.20525007,-0.64971358
1312472561.14436436,0.17713553,-0.20908344,-0.64939755
1312472561.19247079,0.17717120,-0.20651807,-0.65075809
1312472561.24546885,0.17732076,-0.20906948,-0.65086466
1312472561.29531574,0.17846431,-0.20753744,-0.65215349
1312472561.34330606,0.17531374,-0.20880125,-0.65004218
1312472561.39630604,0.17818035,-0.20730248,-0.65002227
1312472561.44328761,0.17637977,-0.21071821,-0.65077227
1312472561.49543929,0.17640121,-0.20738587,-0.65227371
1312472561.54350305,0.17756511,-0.20932156,-0.65138596
1312472561.59535408,0.17822616,-0.20601280,-0.65137267
1312472561.64332271,0.17685439,-0.21035281,-0.64967293
1312472561.69242978,0.17679951,-0.20754005,-0.65023452
1312472561.74447060,0.17587183,-0.20779024,-0.64974886
1312472561.79535270,0.17746656,-0.20601568,-0.65034181
1312472561.84342933,0.17696850,-0.21139364,-0.64791214
1312472561.89643455,0.17713548,-0.20714810,-0.65142709
1312472561.94331050,0.17616190,-0.21072595,-0.64984441
1312472561.99534392,0.17702156,-0.20793998,-0.64887536
1312472562.04555559,0.17805307,-0.20755759,-0.64989334
1312472562.09634137,0.17726693,-0.20831963,-0.64939570
1312472562.14518785,0.17593099,-0.20999165,-0.64677358
1312472562.19535351,0.17827699,-0.20831527,-0.65081507
1312472562.24435306,0.17625071,-0.20857759,-0.64810908
1312472562.29631805,0.17866719,-0.20744891,-0.64878404
1312472562.34331155,0.17600530,-0.20921691,-0.64771545
1312472562.39543557,0.17590250,-0.20652236,-0.64908493
1312472562.44534898,0.17783011,-0.20988180,-0.64706779
1312472562.49631286,0.17715290,-0.20819515,-0.64900023
1312472562.54329967,0.17653695,-0.20988141,-0.64579910
1312472562.59540343,0.17500034,-0.20884013,-0.64616424
1312472562.64508820,0.17624383,-0.20951732,-0.64380372
1312472562.69642687,0.17819896,-0.20542015,-0.64721429
1312472562.74330235,0.17635278,-0.20900397,-0.64420426
1312472562.79539919,0.17813183,-0.20800422,-0.64410907
1312472562.84488654,0.17595460,-0.20976613,-0.64408720
1312472562.89646387,0.17657180,-0.20902118,-0.64284813
1312472562.94352150,0.17650256,-0.21043375,-0.64190120
1312472562.99629688,0.17835180,-0.20916799,-0.64287865
1312472563.04330015,0.17637016,-0.20811567,-0.64380693
1312472563.09555101,0.17826344,-0.20611881,-0.64169759
1312472563.14461827,0.17637318,-0.21145271,-0.64190102
1312472563.19649100,0.17682032,-0.20774558,-0.64311206
1312472563.24731183,0.17815219,-0.20851763,-0.64383537
1312472563.29537654,0.17786627,-0.20700854,-0.64157951
1312472563.34341240,0.17666556,-0.20954862,-0.64136112
1312472563.39572835,0.17751180,-0.20724487,-0.64294153
1312472563.44390917,0.17816758,-0.20930953,-0.64141053
1312472563.49531174,0.17684257,-0.20566241,-0.64702213
1312472563.54409385,0.17618178,-0.20978491,-0.64259624
1312472563.59529662,0.17756376,-0.20763694,-0.64212960
1312472563.64327240,0.17571850,-0.21043196,-0.64127481
1312472563.69579601,0.17846401,-0.20791574,-0.64086652
1312472563.74423480,0.17812996,-0.20764646,-0.64182818
1312472563.79529238,0.17656174,-0.20672652,-0.64273161
1312472563.84446025,0.17826848,-0.20971097,-0.63978964
1312472563.89542818,0.17565034,-0.20799880,-0.64210302
1312472563.94443512,0.17709427,-0.21251087,-0.63916475
1312472563.99644041,0.17927867,-0.20766863,-0.64095569
1312472564.03663683,0.17575730,-0.20916565,-0.64047605
1312472564.08446026,0.17653395,-0.21143404,-0.64377254
1312472564.13634968,0.17821844,-0.20865768,-0.64275581
1312472564.19651556,0.17478561,-0.21014692,-0.64307714
1312472564.23672605,0.17776443,-0.21035022,-0.63914227
1312472564.28816557,0.17688443,-0.20966847,-0.64228791
1312472564.33670807,0.17737837,-0.20775354,-0.64294547
1312472564.38452744,0.17633651,-0.21093619,-0.64244437
1312472564.43628669,0.17719813,-0.20942433,-0.64159995
1312472564.48445916,0.17676018,-0.21030627,-0.64215595
1312472564.53632975,0.17689152,-0.21056144,-0.64228082
1312472564.58748174,0.17550361,-0.21184137,-0.64047062
1312472564.63636994,0.17771646,-0.20853308,-0.64197975
1312472564.68734455,0.17661780,-0.20956419,-0.63988608
1312472564.73643780,0.17594558,-0.20953438,-0.64194012
1312472564.78436708,0.17647292,-0.21182920,-0.64256412
1312472564.83663869,0.17645875,-0.21004325,-0.64257836
1312472564.88435602,0.17520319,-0.21170592,-0.64089197
1312472564.93631911,0.17740688,-0.20826849,-0.64253694
1312472564.98444033,0.17561659,-0.20990296,-0.64289665
1312472565.03632188,0.17551588,-0.21133423,-0.64020503
1312472565.08436108,0.17783558,-0.21123074,-0.64034057
1312472565.13527966,0.17646594,-0.20889826,-0.64231783
1312472565.18435907,0.17514627,-0.21159238,-0.63955277
1312472565.23629570,0.17701492,-0.20969345,-0.64013082
1312472565.28483605,0.17642646,-0.20687743,-0.64045459
1312472565.33629322,0.17848229,-0.20919298,-0.64072156
1312472565.38431668,0.17824294,-0.21059771,-0.64032179
1312472565.43631005,0.17683882,-0.20790121,-0.64055747
1312472565.48444486,0.17570832,-0.21017526,-0.64141166
1312472565.53628945,0.17722152,-0.21032044,-0.64132321
1312472565.58443713,0.17615633,-0.21158800,-0.64097220
1312472565.63629007,0.17712286,-0.20905252,-0.64053243
1312472565.68443036,0.17705153,-0.21122895,-0.63971418
1312472565.73631477,0.17617071,-0.20736268,-0.64248073
1312472565.78499174,0.17686108,-0.21070771,-0.64053512
1312472565.83662248,0.17885393,-0.20918997,-0.64137179
1312472565.88497281,0.17623687,-0.21147604,-0.63962501
1312472565.93540788,0.17578888,-0.20710899,-0.64196736
1312472565.98434925,0.17769924,-0.20931874,-0.64009416
1312472566.03662658,0.17824493,-0.20891750,-0.64234936
1312472566.08442688,0.17772979,-0.21008883,-0.63968360
1312472566.13535285,0.17617981,-0.20851079,-0.64247161
1312472566.18428826,0.17500763,-0.21156582,-0.64184469
1312472566.23633599,0.17632639,-0.20966050,-0.64245450
1312472566.28386092,0.17747611,-0.20981024,-0.64158100
1312472566.33631063,0.17706685,-0.20815018,-0.64134842
1312472566.38398504,0.17655458,-0.20980684,-0.64096254
1312472566.43547344,0.17703837,-0.20957056,-0.63972741
1312472566.48425317,0.17789163,-0.20917876,-0.64142746
1312472566.53529501,0.17624281,-0.20938975,-0.64380473
1312472566.58743095,0.17722662,-0.21289362,-0.63928860
1312472566.63586545,0.17769706,-0.20916623,-0.64237911
1312472566.68446231,0.17542206,-0.21182576,-0.64181882
1312472566.73651385,0.17771237,-0.20904179,-0.64211047
1312472566.78442526,0.17888857,-0.20945135,-0.64083052
1312472566.83628368,0.17669521,-0.20815319,-0.64069819
1312472566.88442373,0.17722546,-0.21286868,-0.64157254
1312472566.93669295,0.17587933,-0.20939432,-0.64301968
1312472566.98429871,0.17708389,-0.21042146,-0.64361411
1312472567.03617764,0.17769796,-0.21133177,-0.64263147
1312472567.08444571,0.17613080,-0.21247473,-0.64150435
1312472567.13635826,0.17573167,-0.20913602,-0.64316446
1312472567.18445492,0.17616656,-0.21082571,-0.64070863
1312472567.23663735,0.17850451,-0.21006413,-0.64272875
1312472567.28443837,0.17694360,-0.20891555,-0.64121544
1312472567.33635759,0.17699239,-0.20902754,-0.64268947
1312472567.38430643,0.17652380,-0.21311268,-0.64187986
1312472567.43636155,0.17657889,-0.20991416,-0.64284104
1312472567.48444557,0.17599739,-0.21002908,-0.64341110
1312472567.53643346,0.17890777,-0.20993981,-0.64284074
1312472567.58729053,0.17845878,-0.21033484,-0.64125168
1312472567.63542986,0.17733546,-0.20952857,-0.64387494
1312472567.68843555,0.17526834,-0.21080206,-0.64196968
1312472567.73648810,0.17702709,-0.20826994,-0.64202148
1312472567.78742266,0.17687938,-0.20903063,-0.64229298
1312472567.83632565,0.17845772,-0.20827194,-0.64328223
1312472567.88438082,0.17498922,-0.21232656,-0.64224303
1312472567.93631887,0.17651775,-0.20939295,-0.64378881
1312472567.98738527,0.17613998,-0.20964953,-0.64327139
1312472568.03643489,0.17818475,-0.20954286,-0.64342278
1312472568.08817053,0.17692825,-0.21005897,-0.64161080
1312472568.13538623,0.17735384,-0.20876785,-0.64347661
1312472568.18431902,0.17691188,-0.21107484,-0.64200711
1312472568.23635340,0.17741795,-0.21069072,-0.64265245
1312472568.28847146,0.17670101,-0.21105918,-0.64322841
1312472568.33637476,0.17648214,-0.21093935,-0.64230162
1312472568.38844275,0.17511658,-0.21105246,-0.64224523
1312472568.43534827,0.17842521,-0.20918204,-0.64166528
1312472568.48423362,0.17701584,-0.20890465,-0.64228606
1312472568.53630781,0.17781407,-0.21069241,-0.64289820
1312472568.58728313,0.17611657,-0.21170776,-0.64164525
1312472568.63631010,0.17593636,-0.21042423,-0.64220262
1312472568.68431020,0.17456663,-0.21206506,-0.64240372
1312472568.73626661,0.17905131,-0.21070682,-0.64282668
1312472568.78428483,0.17752084,-0.20941196,-0.64305907
1312472568.83542013,0.17888640,-0.20929883,-0.64311546
1312472568.88442373,0.17751582,-0.21070947,-0.64103460
1312472568.93530130,0.17799018,-0.20953032,-0.64437449
1312472568.98428893,0.17719179,-0.21079952,-0.64414233
1312472569.03632522,0.17678759,-0.20977730,-0.64390469
1312472569.08741903,0.17828970,-0.21045457,-0.64179790
1312472569.13640070,0.17684467,-0.20978823,-0.64296097
1312472569.18443418,0.17617457,-0.21092990,-0.64285678
1312472569.23628950,0.17805329,-0.21132565,-0.64355135
1312472569.28443241,0.17664601,-0.21028441,-0.64404339
1312472569.33633208,0.17662366,-0.21145122,-0.64228958
1312472569.38803887,0.17781207,-0.21237262,-0.64087069
1312472569.43688917,0.17836919,-0.20827970,-0.64248127
1312472569.48729706,0.17711039,-0.21068129,-0.64320761
1312472569.53638315,0.17800954,-0.20991614,-0.64410180
1312472569.58432078,0.17521423,-0.21219282,-0.64303702
1312472569.63532472,0.17841895,-0.21147358,-0.64205146
1312472569.68843603,0.17635788,-0.21157715,-0.64216965
1312472569.73541951,0.17716542,-0.20850174,-0.64429545
1312472569.78451800,0.17802189,-0.21032536,-0.64168000
1312472569.83636284,0.17786311,-0.20866381,-0.64183593
1312472569.88439608,0.17722963,-0.21134098,-0.64131510
1312472569.93643022,0.17744236,-0.21171440,-0.64237469
1312472569.98436308,0.17829178,-0.20969072,-0.64166915
1312472570.03642130,0.17764415,-0.20762761,-0.64306539
1312472570.08741450,0.17735088,-0.21225582,-0.63942051
1312472570.13539481,0.17713182,-0.21030326,-0.64280617
1312472570.18729877,0.17689653,-0.21221827,-0.64240241
1312472570.23532438,0.17612064,-0.20926371,-0.64354408
1312472570.28434515,0.17854625,-0.21121849,-0.64218032
1312472570.33533430,0.17726119,-0.20928432,-0.64280635
1312472570.38343358,0.17685382,-0.21287169,-0.64092231
1312472570.43533993,0.17844050,-0.20905760,-0.64139664
1312472570.48447204,0.17863497,-0.20815377,-0.64260125
1312472570.53532934,0.17787516,-0.20927827,-0.64397997
1312472570.58435941,0.17660126,-0.21363701,-0.64066243
1312472570.63544250,0.17716141,-0.20992680,-0.64226997
1312472570.68434048,0.17602201,-0.20993114,-0.64072371
1312472570.73528337,0.17844151,-0.20918517,-0.64139563
1312472570.78435159,0.17731513,-0.21095051,-0.64211911
1312472570.83542824,0.17743129,-0.20929216,-0.64225918
1312472570.88428521,0.17704114,-0.21209386,-0.64226067
1312472570.93540382,0.17713194,-0.20826529,-0.64255285
1312472570.98431087,0.17612991,-0.21030919,-0.64125198
1312472571.03530049,0.17921735,-0.21020439,-0.64228356
1312472571.08429599,0.17775622,-0.21136764,-0.63940382
1312472571.13630128,0.17696694,-0.21083063,-0.64106542
1312472571.18443537,0.17687316,-0.21325751,-0.64064962
1312472571.23628950,0.17810948,-0.20917104,-0.64235526
1312472571.28443789,0.17648719,-0.21157719,-0.64229649
1312472571.33628297,0.17845783,-0.20918830,-0.64112598
1312472571.38429523,0.17680602,-0.21095191,-0.64147681
1312472571.43673992,0.17707899,-0.20968099,-0.64133626
1312472571.48433900,0.17746091,-0.21085104,-0.63969338
1312472571.53666782,0.17759611,-0.20978378,-0.64412665
1312472571.58442163,0.17674902,-0.21185735,-0.64026427
1312472571.63665080,0.17795767,-0.21044043,-0.64275748
1312472571.68443727,0.17591710,-0.21095477,-0.64031905
1312472571.73670316,0.17793635,-0.20878048,-0.64290553
1312472571.78843570,0.17729472,-0.21145611,-0.64251947
1312472571.83630252,0.17654231,-0.21031399,-0.64122814
1312472571.88443065,0.17534174,-0.21081612,-0.64075631
1312472571.93638968,0.17613187,-0.21158332,-0.64137661
1312472571.98843670,0.17645149,-0.21220721,-0.64296550
1312472572.03630233,0.17715932,-0.21069065,-0.64239872
1312472572.08488441,0.17777850,-0.21121982,-0.64128429
1312472572.13627481,0.17791903,-0.20864980,-0.64317620
1312472572.18731642,0.17602898,-0.21286207,-0.64096999
1312472572.23540401,0.17698731,-0.21134403,-0.64079171
1312472572.28428984,0.17570207,-0.21246681,-0.64179784
1312472572.33541560,0.17800772,-0.20853940,-0.64169419
1312472572.38443995,0.17756981,-0.21135667,-0.64022064
1312472572.43530726,0.17755435,-0.21158375,-0.64277220
1312472572.48732305,0.17668991,-0.21159127,-0.64121002
1312472572.53527832,0.17692509,-0.21171424,-0.64186722
1312472572.58434033,0.17697302,-0.21159604,-0.64105934
1312472572.63541722,0.17747718,-0.20891882,-0.64145333
1312472572.68829727,0.17808910,-0.21161197,-0.64072609
1312472572.73531961,0.17696491,-0.21057549,-0.64106745
1312472572.78842330,0.17706572,-0.21006058,-0.64160281
1312472572.83629060,0.17819716,-0.20893307,-0.64087433
1312472572.88743305,0.17591177,-0.21245751,-0.64286047
1312472572.93542576,0.17638662,-0.20801617,-0.64125437
1312472572.98729515,0.17761657,-0.21121353,-0.64169669
1312472573.03656316,0.17688027,-0.21119615,-0.64254534
1312472573.08741403,0.17837407,-0.21197449,-0.64285630
1312472573.13676882,0.17754525,-0.21043563,-0.64278132
1312472573.18411374,0.17609407,-0.21297720,-0.64217436
1312472573.23531485,0.17756566,-0.20993005,-0.64238095
1312472573.29244804,0.17818063,-0.21005157,-0.64355356
1312472573.33546066,0.17719507,-0.21199596,-0.63970011
1312472573.38817406,0.17703494,-0.21336642,-0.64252013
1312472573.43543005,0.17771427,-0.21133490,-0.64236182
1312472573.48437071,0.17679775,-0.21298832,-0.64186496
1312472573.53534603,0.17801465,-0.20953500,-0.64397001
1312472573.58343315,0.17696069,-0.21312217,-0.64145154
1312472573.64335680,0.17741290,-0.21005289,-0.64265752
1312472573.69243479,0.17672148,-0.20953462,-0.64270133
1312472573.73636198,0.17986517,-0.20921054,-0.64050728
1312472573.78347039,0.17796779,-0.21171612,-0.64274734
1312472573.83632040,0.17774072,-0.20965937,-0.64398491
1312472573.89544606,0.17797391,-0.21146254,-0.64261454
1312472573.93629837,0.17707483,-0.21120869,-0.64159369
1312472573.98441720,0.17619462,-0.21164854,-0.64714891
1312472574.03541994,0.17849317,-0.20978250,-0.64514953
1312472574.08442664,0.17803793,-0.21246907,-0.64394665
1312472574.13538194,0.17897999,-0.20992891,-0.64391130
1312472574.19530892,0.17597584,-0.21244507,-0.64406586
1312472574.23630977,0.17649435,-0.21145117,-0.64216268
1312472574.28334427,0.17791273,-0.21196032,-0.64368904
1312472574.34328485,0.17860329,-0.20929408,-0.64326614
1312472574.39637423,0.17893539,-0.20828922,-0.64217985
1312472574.43628550,0.17740878,-0.21056160,-0.64278829
1312472574.49534178,0.17601450,-0.21128137,-0.64555007
1312472574.54333091,0.17824380,-0.21082790,-0.64260375
1312472574.58432245,0.17844765,-0.20893160,-0.64126283
1312472574.63531709,0.17777835,-0.21132244,-0.64356720
1312472574.69642019,0.17651758,-0.21244991,-0.64416891
1312472574.74340987,0.17680693,-0.21016313,-0.64363199
1312472574.78733206,0.17797802,-0.21095383,-0.64248377
1312472574.84329438,0.17793709,-0.21104865,-0.64544082
1312472574.89533138,0.17854844,-0.20841667,-0.64179826
1312472574.94344521,0.17750463,-0.21032520,-0.64117247
1312472574.98434782,0.17789152,-0.20826241,-0.64358366
1312472575.04329753,0.18024662,-0.21068847,-0.64571321
1312472575.09542203,0.17868383,-0.20918213,-0.64191902
1312472575.13626933,0.17814812,-0.21096167,-0.64193660
1312472575.18741846,0.17733938,-0.21207680,-0.64412427
1312472575.23528004,0.17816626,-0.20938721,-0.64597738
1312472575.29643369,0.17781810,-0.21120268,-0.64289415
1312472575.33634019,0.17706054,-0.21146071,-0.64186126
1312472575.38733816,0.17815600,-0.21310383,-0.64433807
1312472575.43647504,0.17765510,-0.21208781,-0.64343429
1312472575.48431778,0.17759189,-0.21233046,-0.64451075
1312472575.53652930,0.17826396,-0.20950858,-0.64664251
1312472575.58443475,0.17649817,-0.21308306,-0.64456826
1312472575.63630581,0.17921321,-0.20877776,-0.64444387
1312472575.68443489,0.17757146,-0.21283604,-0.64491117
1312472575.73656082,0.17784445,-0.21156512,-0.64477062
1312472575.78434348,0.17943911,-0.21080956,-0.64549023
1312472575.83631444,0.17745656,-0.21054603,-0.64426333
1312472575.88741493,0.17614391,-0.21219778,-0.64352065
1312472575.94430637,0.17808880,-0.21181722,-0.64529192
1312472575.98733974,0.17769510,-0.20789212,-0.64225447
1312472576.03646994,0.17629457,-0.21090344,-0.64540237
1312472576.08407140,0.17762855,-0.21284698,-0.64396745
1312472576.13627315,0.17739733,-0.21231793,-0.64546245
1312472576.18836308,0.17713879,-0.21323420,-0.64305246
1312472576.24414420,0.17953192,-0.21019045,-0.64387751
1312472576.29651093,0.17882743,-0.20893015,-0.64177829
1312472576.34336662,0.17706363,-0.21082443,-0.64173156
1312472576.38730574,0.17863996,-0.20981060,-0.64272285
1312472576.43554378,0.17731182,-0.21270840,-0.64465845
1312472576.49542284,0.17688006,-0.21231776,-0.64495498
1312472576.54334688,0.17835996,-0.20916955,-0.64274383
1312472576.58437181,0.17775698,-0.21068148,-0.64384192
1312472576.64334226,0.17909288,-0.21196380,-0.64456123
1312472576.69541764,0.17847291,-0.21018545,-0.64326698
1312472576.74329257,0.17735985,-0.21055223,-0.64359719
1312472576.79543447,0.17865115,-0.21019486,-0.64258498
1312472576.84328365,0.17863601,-0.21021669,-0.64057064
1312472576.89637566,0.17889056,-0.20777115,-0.64285803
1312472576.94331384,0.17628865,-0.21003540,-0.64312553
1312472576.98433709,0.17810751,-0.20789692,-0.64223063
1312472577.04328728,0.17754301,-0.21130210,-0.64519298
1312472577.09237814,0.17810145,-0.20713151,-0.64223671
1312472577.14434767,0.17859624,-0.21033645,-0.64124376
1312472577.19534326,0.17791204,-0.20867318,-0.64102703
1312472577.23628473,0.17739759,-0.21017733,-0.64292616
1312472577.29530311,0.17756748,-0.21130680,-0.64478856
1312472577.34328699,0.17770314,-0.20993164,-0.64237303
1312472577.38433599,0.17757805,-0.20738493,-0.64186203
1312472577.44434786,0.17795970,-0.21069556,-0.64275545
1312472577.49531126,0.17790790,-0.20724654,-0.64318734
1312472577.54331827,0.17837226,-0.21059774,-0.64044869
1312472577.59643412,0.17639366,-0.20992813,-0.64137393
